GPS BIIF-4 (39166 NORAD) Tracking and Keplerian Element Data

This shows tracking and keplerian element data for the satellite.

Feedback or suggestion? Click here.




ElementValue
Catalog39166
NameGPS BIIF-4
Epoch Orbit4094
Epoch Day351.48942592
Epoch Year2018
RAAN18.4534
Inclination56.0521
Eccentricity0.0062088
Argument of Perigee22.4118
Mean Anonmoly337.917
Mean Motion2.00560743
Decay Rate-5.3E-07
L11 39166U 13023A 18351.48942592 -.00000053 00000-0 00000+0 0 9993
L22 39166 56.0521 18.4534 0062088 22.4118 337.9170 2.00560743 40947

Live tracking and technical data element details for GPS BIIF-4 (NORAD 39166). GPS BIIF-4 can be tracked NOW for your location showing map with azimuth and elevation plus other details from your city location.

Track the satellite on the map from your city or location and see movement details for azimuth, elevation, latitude, longitude, range, height, and movement on the map or in text.







IsCatalogInMostPopularTable: catalog: 39166, numindb: 92
Update: records affected: 1



GetName: 39166 GPS BIIF-4

Hit Count: updated at: Tue, 18 Dec 2018 21:20:28 GMT